Orbital Elements at Epoch 2459200.5 (2020-Dec-17.0) TDB
Reference: JPL 19 (heliocentric ecliptic J2000)
Element | Value | Uncertainty (1-sigma) | Units |
e | .1890494752068878 | 5.3855e-08 | |
a | 3.09532473651872 | 1.8536e-08 | au |
q | 2.510155219484958 | 1.6417e-07 | au |
i | 2.015695073908236 | 5.1264e-06 | deg |
node | 41.89047120831544 | 0.00012444 | deg |
peri | 316.0432365950742 | 0.0001249 | deg |
M | 234.9511215611513 | 1.2824e-05 | deg |
tp | 2459891.431598236536 (2022-Nov-07.93159824) | 7.4465e-05 | TDB |
period | 1989.105208063015 5.45 | 1.7867e-05 4.892e-08 | d yr |
n | .1809859018722126 | 1.6257e-09 | deg/d |
Q | 3.680494253552482 | 2.204e-08 | au |
|
| | Orbit Determination Parameters
Additional Information
|